TimeMST,TemperatureF,Dew PointF,Humidity,Sea Level PressureIn,VisibilityMPH,Wind Direction,Wind SpeedMPH,Gust SpeedMPH,PrecipitationIn,Events,Conditions,WindDirDegrees,DateUTC
12:35 AM,71.6,50.0,46,29.84,10.0,East,4.6,-,N/A,,Clear,80,2012-10-11 07:35:00
12:55 AM,69.8,50.0,49,29.84,10.0,Calm,Calm,-,N/A,,Clear,0,2012-10-11 07:55:00
1:15 AM,71.6,50.0,46,29.85,10.0,Calm,Calm,-,N/A,,Clear,0,2012-10-11 08:15:00
1:35 AM,71.6,50.0,46,29.85,10.0,Calm,Calm,-,N/A,,Clear,0,2012-10-11 08:35:00
1:55 AM,71.6,50.0,46,29.85,10.0,Calm,Calm,-,N/A,,Partly Cloudy,0,2012-10-11 08:55:00
2:15 AM,66.2,48.2,52,29.85,10.0,Calm,Calm,-,N/A,,Mostly Cloudy,0,2012-10-11 09:15:00
2:35 AM,68.0,50.0,52,29.84,10.0,Calm,Calm,-,N/A,,Mostly Cloudy,0,2012-10-11 09:35:00
2:55 AM,69.8,50.0,49,29.84,10.0,East,3.5,-,N/A,,Unknown,100,2012-10-11 09:55:00
3:15 AM,69.8,51.8,53,29.83,10.0,NE,4.6,-,N/A,,Overcast,40,2012-10-11 10:15:00
3:35 AM,69.8,50.0,49,29.84,10.0,NE,5.8,-,N/A,,Overcast,50,2012-10-11 10:35:00
3:55 AM,71.6,51.8,50,29.83,10.0,ENE,3.5,-,N/A,,Overcast,60,2012-10-11 10:55:00
4:15 AM,71.6,53.6,53,29.83,10.0,ENE,3.5,-,N/A,,Overcast,60,2012-10-11 11:15:00
4:35 AM,71.6,53.6,53,29.84,10.0,ESE,9.2,-,N/A,,Overcast,110,2012-10-11 11:35:00
4:55 AM,71.6,55.4,57,29.83,10.0,East,8.1,-,N/A,,Mostly Cloudy,90,2012-10-11 11:55:00
5:35 AM,71.6,57.2,60,29.84,10.0,East,10.4,-,N/A,,Overcast,100,2012-10-11 12:35:00
5:55 AM,71.6,57.2,60,29.84,10.0,East,9.2,-,N/A,,Overcast,90,2012-10-11 12:55:00
6:15 AM,71.6,57.2,60,29.85,10.0,East,8.1,-,N/A,,Overcast,100,2012-10-11 13:15:00
6:35 AM,71.6,57.2,60,29.85,10.0,East,9.2,-,N/A,,Overcast,100,2012-10-11 13:35:00
6:55 AM,69.8,59.0,68,29.85,10.0,East,9.2,-,N/A,,Mostly Cloudy,90,2012-10-11 13:55:00
7:15 AM,71.6,59.0,64,29.87,10.0,East,10.4,-,N/A,,Overcast,100,2012-10-11 14:15:00
7:35 AM,71.6,59.0,64,29.87,10.0,ENE,9.2,-,N/A,,Mostly Cloudy,70,2012-10-11 14:35:00
7:55 AM,69.8,59.0,68,29.87,10.0,East,9.2,-,N/A,,Mostly Cloudy,80,2012-10-11 14:55:00
8:15 AM,71.6,59.0,64,29.88,10.0,East,4.6,-,N/A,,Mostly Cloudy,90,2012-10-11 15:15:00
8:35 AM,71.6,59.0,64,29.88,10.0,East,8.1,-,N/A,,Mostly Cloudy,80,2012-10-11 15:35:00
8:55 AM,75.2,59.0,57,29.88,10.0,East,9.2,-,N/A,,Scattered Clouds,90,2012-10-11 15:55:00
9:15 AM,77.0,57.2,50,29.88,10.0,East,10.4,-,N/A,,Partly Cloudy,100,2012-10-11 16:15:00
9:35 AM,75.2,57.2,53,29.87,10.0,East,11.5,-,N/A,,Partly Cloudy,90,2012-10-11 16:35:00
9:55 AM,77.0,57.2,50,29.88,10.0,East,12.7,-,N/A,,Partly Cloudy,100,2012-10-11 16:55:00
10:15 AM,80.6,55.4,42,29.87,10.0,East,11.5,-,N/A,,Partly Cloudy,100,2012-10-11 17:15:00
10:35 AM,80.6,55.4,42,29.87,10.0,ESE,9.2,-,N/A,,Clear,110,2012-10-11 17:35:00
10:55 AM,82.4,53.6,37,29.86,10.0,ESE,11.5,-,N/A,,Clear,110,2012-10-11 17:55:00
11:15 AM,84.2,50.0,30,29.85,10.0,ESE,15.0,19.6,N/A,,Clear,120,2012-10-11 18:15:00
11:35 AM,82.4,51.8,35,29.84,10.0,ESE,16.1,-,N/A,,Scattered Clouds,110,2012-10-11 18:35:00
11:55 AM,82.4,50.0,32,29.84,10.0,South,5.8,-,N/A,,Mostly Cloudy,170,2012-10-11 18:55:00
12:15 PM,84.2,50.0,30,29.83,10.0,South,13.8,17.3,N/A,,Scattered Clouds,180,2012-10-11 19:15:00
12:35 PM,84.2,53.6,35,29.83,10.0,South,12.7,19.6,N/A,,Clear,190,2012-10-11 19:35:00
12:55 PM,84.2,55.4,37,29.82,10.0,SSW,13.8,-,N/A,,Partly Cloudy,200,2012-10-11 19:55:00
1:15 PM,84.2,55.4,37,29.81,10.0,South,15.0,-,N/A,,Partly Cloudy,190,2012-10-11 20:15:00
1:35 PM,84.2,53.6,35,29.80,10.0,SSW,11.5,19.6,N/A,,Clear,200,2012-10-11 20:35:00
1:55 PM,84.2,53.6,35,29.79,10.0,South,9.2,-,N/A,,Partly Cloudy,190,2012-10-11 20:55:00
2:15 PM,86.0,53.6,33,29.80,10.0,ESE,10.4,19.6,N/A,,Scattered Clouds,120,2012-10-11 21:15:00
2:35 PM,80.6,55.4,42,29.79,10.0,SSW,4.6,-,N/A,,Scattered Clouds,200,2012-10-11 21:35:00
3:35 PM,86.0,50.0,29,29.78,10.0,SSW,12.7,23.0,N/A,,Partly Cloudy,200,2012-10-11 22:35:00
3:55 PM,86.0,50.0,29,29.78,10.0,South,15.0,23.0,N/A,,Scattered Clouds,170,2012-10-11 22:55:00
4:35 PM,84.2,46.4,27,29.78,10.0,SSW,16.1,28.8,N/A,,Partly Cloudy,210,2012-10-11 23:35:00
4:55 PM,82.4,46.4,28,29.78,10.0,SSW,17.3,25.3,N/A,,Clear,210,2012-10-11 23:55:00
5:15 PM,82.4,42.8,25,29.78,10.0,SSW,20.7,26.5,N/A,,Partly Cloudy,210,2012-10-12 00:15:00
5:35 PM,80.6,42.8,26,29.79,10.0,SSW,17.3,25.3,N/A,,Clear,200,2012-10-12 00:35:00
6:15 PM,77.0,46.4,34,29.81,10.0,SSW,6.9,-,N/A,,Clear,210,2012-10-12 01:15:00
6:35 PM,75.2,50.0,41,29.81,10.0,South,8.1,-,N/A,,Clear,190,2012-10-12 01:35:00
6:55 PM,75.2,50.0,41,29.82,10.0,South,8.1,-,N/A,,Clear,190,2012-10-12 01:55:00
7:15 PM,75.2,42.8,31,29.83,10.0,SW,10.4,-,N/A,,Clear,230,2012-10-12 02:15:00
7:35 PM,73.4,37.4,27,29.84,10.0,WSW,9.2,-,N/A,,Clear,240,2012-10-12 02:35:00
7:55 PM,73.4,37.4,27,29.84,10.0,WSW,9.2,-,N/A,,Clear,240,2012-10-12 02:55:00
8:35 PM,68.0,39.2,35,29.85,10.0,WSW,5.8,-,N/A,,Clear,250,2012-10-12 03:35:00
8:55 PM,68.0,37.4,33,29.86,10.0,SW,8.1,-,N/A,,Partly Cloudy,230,2012-10-12 03:55:00
9:15 PM,66.2,39.2,37,29.86,10.0,SW,8.1,-,N/A,,Clear,220,2012-10-12 04:15:00
9:35 PM,66.2,39.2,37,29.87,10.0,SW,8.1,-,N/A,,Scattered Clouds,220,2012-10-12 04:35:00
9:55 PM,66.2,39.2,37,29.87,10.0,SW,8.1,-,N/A,,Scattered Clouds,220,2012-10-12 04:55:00
10:15 PM,64.4,41.0,42,29.87,10.0,South,5.8,-,N/A,,Partly Cloudy,170,2012-10-12 05:15:00
10:35 PM,64.4,41.0,42,29.88,10.0,South,4.6,-,N/A,,Partly Cloudy,170,2012-10-12 05:35:00
10:55 PM,64.4,39.2,40,29.88,10.0,SSE,3.5,-,N/A,,Scattered Clouds,150,2012-10-12 05:55:00
11:15 PM,62.6,41.0,45,29.88,10.0,SE,5.8,-,N/A,,Scattered Clouds,130,2012-10-12 06:15:00
11:35 PM,62.6,42.8,48,29.88,10.0,SE,5.8,-,N/A,,Partly Cloudy,130,2012-10-12 06:35:00
11:55 PM,62.6,41.0,45,29.88,10.0,SE,6.9,-,N/A,,Clear,140,2012-10-12 06:55:00